Retour au catalogue

STARLINK-34060

ActifCommunicationsVLEO
NORAD 63815·PAYLOAD·🇺🇸 United States

Lancé May 4, 2025 depuis Cape Canaveral Space Force Station

Loading…

Prochains Passages (prochaines 24 heures)

TLE

FraisSource: CelesTrak SupGP

Époque: Sep 14, 2026, 21:19 UTC

1 63815C 25092M   26257.88868056 -.00015894  00000+0 -57551-3 0  2573
2 63815  42.9994 183.7745 0001214 264.1389  84.4478 15.27595898    13

Suivez STARLINK-34060 en temps réel avec AllMySat

Download on the App Store